Simultaneous Nadir Overpasses (SNOs) Predictions

Prediction of SNOs between AQUA and GOES-15 Satellite Orbit:

Table of predicted SNOs for the next 14.0 days since TLE Epoch: 3/12/2021
Index Date Time (AQUA) AQUA Lat,Lon GOES-15 Lat,Lon Distance(km) Time Diff (sec)
1 03/13/2021 22:10:16 0.08,-128.68 0.11,-128.41 30.48 80
2 03/15/2021 21:58:04 0.66,-125.72 0.11,-128.42 307.12 80
3 03/16/2021 10:19:20 0.42,-130.88 -0.10,-128.40 281.73 80
4 03/18/2021 10:07:09 -0.23,-127.93 -0.11,-128.40 54.97 80
5 03/20/2021 09:54:57 -0.83,-124.96 -0.11,-128.40 391.02 80
6 03/20/2021 22:16:21 -0.27,-130.15 0.09,-128.42 196.59 80
7 03/22/2021 22:04:09 0.33,-127.19 0.09,-128.42 138.92 80
8 03/23/2021 10:25:25 0.75,-132.35 -0.08,-128.40 449.08 80
9 03/24/2021 21:51:58 1.00,-124.24 0.09,-128.40 473.91 80
10 03/25/2021 10:13:13 0.14,-129.39 -0.07,-128.39 114.37 80
